Вернуться в каталог

STARLINK-32831

АктивенСвязьVLEO
NORAD 62860·PAYLOAD·🇺🇸 United States

Запущен Feb 1, 2025 с Vandenberg Space Force Base

Loading…

Ближайшие Пролёты (ближайшие 24 часа)

TLE

СвежийSource: CelesTrak SupGP

Эпоха: Sep 14, 2026, 20:52 UTC

1 62860C 25022G   26257.86993056 -.00021000  00000+0 -62069-3 0  2578
2 62860  53.1579 327.6738 0001091  84.2600 139.8634 15.34389744    14

Отслеживайте STARLINK-32831 в реальном времени с AllMySat

Download on the App Store